Wind_Speed
13 12 14 15 11 9 7 6 5 8 10 9 6 6 11 18 21 25 26 26 28 30 31 31 33 34 36 36 37 38 39 40 41 41 41 41 42 44 44 45 45 46 45 45 46
10 12 11 11 12 9 8 7 5 6 6 7 6 7 7 6 7 10 15 19 21 22 23 25 28 30 33 35 37 39 39 42 44 44 44 45 46 49 51 50 50 49 49 50 51
7 7 9 9 8 9 8 5 5 5 4 3 2 2 3 4 7 10 13 15 17 19 21 23 26 28 30 32 34 35 38 41 44 43 43 43 46 51 54 56 57 55 53 53 54
7 6 5 5 5 6 4 4 3 2 2 2 4 6 8 10 11 14 17 18 20 23 25 27 28 30 32 33 34 37 39 42 45 45 44 45 45 48 52 55 58 60 59 58 57
9 8 7 5 3 3 2 1 2 4 5 6 7 8 10 11 11 13 17 20 24 28 30 31 33 35 37 39 40 41 43 44 47 48 51 51 51 51 52 54 57 59 60 61 62
9 9 8 7 6 5 3 2 3 4 5 8 10 11 14 16 18 20 21 23 25 28 31 34 37 40 41 43 44 45 46 47 49 52 53 54 54 54 55 57 59 61 63 63 63
12 11 10 10 9 8 7 6 6 6 8 9 11 13 16 17 19 22 23 23 25 28 30 33 37 40 43 47 49 50 50 52 53 55 57 59 58 59 59 59 60 63 65 67 67
11 12 13 13 12 11 11 10 10 10 11 12 13 15 17 19 20 23 24 25 27 30 33 35 38 41 44 47 49 51 52 53 55 56 59 65 65 66 67 67 65 64 65 67 67
12 13 13 13 14 14 14 14 14 15 15 16 17 18 19 19 21 23 24 27 30 33 36 38 40 43 46 46 46 46 49 48 49 52 56 62 66 66 67 69 72 71 70 68 68
14 15 16 16 16 16 15 16 15 16 17 17 18 17 19 20 22 25 27 29 31 35 37 37 41 43 43 43 43 43 46 47 49 47 53 58 61 59 60 63 66 71 74 73 72
16 18 18 16 16 18 21 19 18 17 17 18 19 21 22 22 23 27 29 31 32 36 36 37 41 42 39 39 40 41 44 46 47 49 52 49 52 40 44 49 57 64 71 74 74
17 19 18 18 18 19 20 20 20 19 19 20 22 23 26 26 28 30 31 31 32 35 38 36 40 40 39 39 42 44 45 43 39 40 43 40 32 31 37 36 35 38 44 57 65
18 19 20 19 20 20 22 22 23 22 21 20 22 24 27 27 26 28 29 29 30 32 34 35 37 39 40 40 42 43 40 37 31 29 32 36 27 28 36 38 37 38 39 38 38
21 22 22 22 22 23 24 24 26 25 22 23 24 25 26 31 30 32 32 32 31 31 30 31 35 36 38 37 39 35 35 33 32 32 34 38 38 32 25 31 35 35 34 34 35
24 23 22 22 24 25 26 27 28 27 25 24 25 25 25 28 32 32 32 34 34 34 33 34 35 35 33 34 34 34 36 35 35 34 37 31 38 36 36 30 30 32 33 32 32
23 22 25 26 26 26 28 29 28 26 25 25 26 26 28 30 29 30 32 32 32 32 32 32 31 30 31 30 32 36 35 35 36 36 36 37 41 38 36 30 28 32 33 37 41
23 23 25 27 27 27 29 28 26 25 26 25 25 26 26 26 28 29 30 32 33 30 29 31 30 30 31 31 32 38 38 40 39 38 38 41 38 31 34 35 33 30 37 42 44
24 25 26 28 28 28 28 27 26 25 26 26 24 24 24 25 26 28 31 32 32 30 30 28 26 28 29 31 29 36 35 35 40 42 45 42 41 42 43 41 34 35 30 39 43
27 28 29 29 30 30 28 25 26 26 25 24 24 23 24 27 26 28 30 33 34 33 32 33 30 25 27 34 31 31 33 33 38 42 45 40 39 39 40 38 37 36 38 38 42
30 30 30 30 30 29 26 24 25 25 24 24 21 23 24 27 28 29 30 34 35 35 34 36 36 25 22 29 28 28 29 32 36 41 42 40 42 45 48 45 45 46 43 40 39
32 30 30 29 28 26 24 24 24 23 24 23 22 24 25 28 29 29 32 37 37 38 37 37 33 21 18 22 24 27 27 33 35 37 46 52 47 49 51 52 52 52 52 48 48
32 30 30 28 26 24 23 23 23 24 23 22 21 24 26 30 31 30 32 35 38 39 38 37 37 22 19 22 24 23 27 32 36 40 47 53 54 54 56 54 50 49 45 43 48
29 28 27 25 23 23 23 24 23 25 23 23 23 24 28 31 33 32 34 35 37 39 39 37 37 33 24 23 26 23 26 32 38 42 46 56 60 55 49 48 52 53 52 52 46
24 24 23 21 21 23 25 25 25 25 26 25 25 27 29 31 34 35 36 36 35 37 36 37 37 33 29 25 31 24 25 32 37 45 52 54 55 38 50 54 53 53 52 51 49
21 20 21 22 25 26 25 26 26 27 28 29 28 28 30 31 33 34 33 38 32 36 36 35 35 35 30 27 29 26 28 30 39 44 53 47 40 44 47 43 39 34 30 30 32
22 21 22 25 28 29 28 27 26 27 28 30 30 30 32 33 36 38 38 39 36 36 38 36 36 36 30 27 29 25 28 34 39 45 49 37 37 38 38 39 37 33 28 22 22
27 27 28 28 29 30 30 29 29 31 31 33 33 32 33 35 37 38 39 40 39 38 38 36 38 38 33 28 26 26 28 33 36 44 41 34 34 33 31 29 31 26 25 24 21
Wind_Direction
39 41 41 43 53 59 55 69 100 126 140 146 150 213 229 228 221 222 220 220 222 225 230 236 241 241 241 242 243 244 245 247 246 244 242 238 242 244 245 243 243 244 245 246 251
45 47 50 52 58 66 72 79 84 100 113 130 147 159 172 188 202 215 232 239 241 244 247 247 249 250 250 252 252 254 254 254 254 252 251 250 247 248 249 248 246 244 243 242 244
48 51 51 54 63 69 73 78 65 73 89 98 127 198 245 249 246 245 246 246 245 246 247 250 252 254 255 256 257 259 259 259 258 257 253 250 248 248 249 251 250 247 245 245 245
29 37 49 50 56 60 88 105 111 83 91 175 225 236 237 242 245 258 260 260 259 259 260 261 261 261 262 262 262 262 262 262 263 263 262 258 254 252 252 252 252 252 247 246 244
20 18 19 24 28 38 71 125 188 229 231 239 242 242 248 254 259 254 258 260 260 262 263 264 264 263 263 262 263 263 263 263 263 263 261 260 259 257 255 254 254 253 253 251 250
16 12 13 10 6 360 349 315 283 262 249 259 261 258 255 255 258 262 267 270 267 264 264 264 264 266 267 266 266 265 265 265 265 265 266 264 263 261 256 254 254 254 255 254 252
5 6 2 0 360 351 349 334 324 303 285 274 271 271 272 275 275 275 277 277 272 269 266 265 265 264 264 264 264 265 267 268 268 267 267 266 265 263 260 257 254 252 252 253 254
4 359 350 345 346 339 333 326 320 311 301 293 289 283 281 278 277 278 277 273 272 271 270 269 268 268 267 267 268 269 268 268 269 270 269 266 264 264 265 262 258 254 251 252 250
351 348 342 339 336 332 327 322 318 313 310 308 303 295 292 292 292 289 286 282 281 281 281 279 277 277 275 276 276 276 277 278 277 277 275 272 269 270 269 268 265 261 255 251 250
349 346 338 334 335 338 340 334 330 325 317 314 309 306 304 306 303 299 298 295 293 290 287 286 287 288 289 288 285 282 282 283 282 279 278 276 277 280 276 269 266 264 261 256 249
333 338 338 335 336 336 335 337 331 329 323 319 313 311 310 308 306 304 305 303 301 299 297 297 294 291 287 283 283 284 282 284 281 279 277 277 280 282 279 275 268 261 258 256 253
325 326 327 329 331 334 334 332 331 326 323 320 316 314 312 314 314 313 313 310 305 299 296 294 289 290 289 289 291 289 292 286 287 283 282 283 286 275 279 287 282 274 268 261 257
321 324 326 326 328 330 330 330 325 322 325 323 321 319 319 318 321 320 316 312 304 300 299 299 294 293 293 292 289 293 289 289 287 281 288 289 295 284 273 275 279 282 279 277 272
316 316 320 322 325 327 326 323 324 322 322 323 322 324 325 325 325 326 323 320 316 311 308 303 299 297 295 292 293 292 287 290 296 296 291 296 297 280 282 278 277 280 278 276 272
313 310 313 318 321 323 324 324 324 325 325 324 328 328 329 330 329 328 327 322 319 317 313 307 302 297 294 294 293 294 290 291 298 296 294 306 300 294 301 295 286 276 272 269 265
313 311 313 317 321 323 322 322 322 324 330 329 329 333 335 333 330 326 325 325 322 315 313 311 309 302 294 290 292 292 296 297 298 295 294 297 299 296 306 292 282 272 267 264 260
316 316 318 318 318 321 322 320 322 323 323 326 328 330 330 329 328 326 327 327 328 320 316 318 314 304 297 292 295 296 303 302 300 302 302 304 300 307 303 302 291 278 276 269 267
315 316 317 318 319 319 317 316 317 319 321 325 328 329 330 330 330 329 332 329 329 325 312 314 310 296 292 288 290 296 303 304 302 304 304 304 303 303 305 302 292 280 270 265 269
313 316 315 317 318 316 314 314 317 319 319 322 323 323 327 328 330 332 335 330 331 327 321 313 316 295 284 284 289 295 300 303 301 301 304 307 309 309 317 308 296 283 275 269 259
315 317 317 318 316 314 311 312 315 316 316 316 319 326 328 331 331 331 336 336 331 329 325 320 316 312 281 283 289 297 300 303 304 305 305 310 312 314 315 309 300 294 287 274 270
313 315 316 314 311 308 306 309 312 312 312 312 317 328 331 334 330 330 335 336 333 329 327 327 327 324 300 293 295 299 302 302 301 302 307 311 310 317 313 306 303 293 288 284 277
310 310 310 309 306 303 302 306 308 312 312 313 315 327 333 335 333 331 333 333 333 329 331 329 331 321 315 304 303 301 305 305 304 309 310 309 310 317 313 308 299 293 295 289 280
304 305 305 307 305 304 303 304 303 312 314 314 316 322 325 329 331 329 331 332 332 330 331 329 332 320 312 311 304 310 308 305 308 309 313 306 314 318 311 302 297 296 292 288 281
311 308 308 308 308 307 308 308 304 311 313 315 315 317 320 325 326 326 328 329 331 328 328 326 329 321 314 315 307 311 309 308 310 309 307 315 315 321 314 311 302 293 287 283 279
317 315 313 313 312 310 312 310 307 310 312 311 313 314 314 317 320 319 323 324 329 326 325 323 323 322 318 310 305 308 305 309 309 312 311 319 319 323 324 322 319 315 304 292 282
315 312 311 309 308 309 309 308 306 307 309 309 312 313 312 315 317 318 318 321 326 326 325 324 324 322 328 306 305 303 299 308 313 316 315 315 319 325 335 339 333 330 322 312 279
310 308 309 310 307 307 307 306 304 306 310 309 309 313 313 313 317 316 317 320 322 327 323 322 321 320 328 308 308 313 306 312 316 315 316 314 318 325 335 340 340 348 336 326 309
Height
5828 5826 5825 5822 5821 5821 5820 5821 5822 5824 5825 5826 5827 5829 5831 5833 5837 5839 5842 5845 5845 5847 5849 5849 5850 5852 5853 5855 5856 5857 5858 5859 5861 5864 5866 5866 5865 5864 5865 5867 5869 5871 5873 5875 5876
5830 5828 5827 5826 5824 5823 5822 5823 5823 5824 5826 5827 5828 5830 5831 5833 5835 5837 5840 5841 5842 5843 5844 5844 5845 5846 5847 5848 5849 5849 5851 5850 5852 5855 5857 5858 5858 5857 5856 5857 5860 5862 5863 5866 5867
5831 5830 5828 5827 5826 5826 5825 5824 5824 5824 5825 5826 5827 5828 5829 5831 5834 5835 5836 5837 5838 5838 5839 5839 5840 5840 5841 5841 5842 5842 5842 5840 5841 5843 5845 5847 5848 5847 5846 5846 5847 5851 5853 5855 5858
5832 5831 5830 5828 5827 5827 5827 5826 5826 5826 5826 5827 5827 5828 5830 5831 5834 5832 5831 5832 5833 5833 5834 5834 5834 5835 5834 5834 5835 5834 5833 5832 5832 5833 5835 5836 5837 5838 5838 5837 5836 5838 5842 5844 5847
5832 5830 5829 5828 5828 5828 5827 5827 5827 5826 5826 5826 5827 5828 5828 5828 5829 5829 5829 5828 5828 5827 5827 5827 5826 5826 5826 5826 5826 5825 5825 5826 5824 5822 5821 5822 5825 5827 5828 5827 5826 5827 5829 5832 5833
5832 5830 5828 5828 5827 5827 5827 5826 5826 5826 5826 5824 5824 5824 5825 5825 5824 5824 5823 5823 5822 5822 5821 5821 5820 5819 5818 5817 5817 5816 5816 5815 5813 5811 5810 5811 5812 5815 5816 5815 5815 5816 5816 5818 5821
5830 5829 5827 5826 5825 5824 5825 5824 5824 5823 5823 5823 5822 5821 5820 5821 5818 5817 5817 5816 5815 5815 5814 5813 5812 5812 5811 5808 5807 5806 5806 5803 5801 5799 5797 5795 5798 5798 5797 5799 5801 5802 5803 5804 5805
5830 5828 5826 5824 5823 5822 5821 5820 5820 5819 5818 5818 5817 5816 5815 5814 5814 5813 5812 5810 5809 5807 5805 5804 5802 5800 5798 5797 5796 5794 5793 5791 5788 5786 5783 5781 5784 5782 5780 5779 5782 5785 5787 5788 5792
5829 5827 5825 5823 5821 5820 5818 5817 5816 5814 5813 5811 5810 5808 5808 5806 5806 5804 5803 5801 5799 5797 5795 5793 5792 5789 5787 5786 5784 5781 5779 5778 5776 5771 5768 5765 5768 5769 5765 5762 5762 5764 5768 5771 5774
5828 5825 5823 5820 5818 5816 5815 5813 5812 5810 5808 5805 5804 5804 5802 5801 5799 5796 5795 5793 5791 5787 5786 5784 5780 5777 5775 5773 5772 5770 5767 5765 5761 5759 5752 5749 5754 5753 5745 5741 5739 5740 5744 5747 5753
5826 5824 5821 5818 5816 5814 5813 5811 5811 5808 5805 5803 5801 5799 5797 5797 5795 5791 5788 5785 5783 5779 5776 5773 5770 5767 5765 5763 5761 5759 5757 5754 5749 5741 5737 5739 5739 5743 5726 5722 5720 5719 5718 5722 5731
5824 5822 5820 5817 5814 5812 5810 5808 5806 5805 5803 5799 5797 5794 5791 5789 5787 5784 5782 5779 5775 5771 5767 5767 5760 5758 5756 5753 5749 5745 5744 5741 5739 5731 5723 5725 5730 5728 5716 5714 5708 5705 5705 5705 5710
5822 5819 5817 5814 5812 5809 5806 5805 5802 5800 5798 5795 5792 5789 5786 5784 5782 5778 5775 5771 5768 5765 5761 5758 5752 5749 5745 5741 5735 5734 5730 5729 5727 5723 5716 5712 5719 5713 5708 5703 5699 5699 5699 5699 5700
5818 5816 5813 5811 5809 5805 5803 5800 5798 5796 5794 5792 5788 5784 5781 5776 5775 5772 5767 5764 5759 5756 5753 5749 5744 5738 5733 5728 5724 5725 5720 5719 5717 5712 5709 5704 5701 5699 5702 5697 5690 5688 5690 5691 5691
5814 5811 5809 5806 5804 5801 5799 5795 5792 5790 5788 5786 5782 5778 5776 5773 5768 5764 5760 5756 5751 5747 5745 5740 5736 5730 5724 5720 5716 5716 5712 5710 5707 5704 5700 5700 5692 5689 5688 5686 5682 5679 5679 5680 5680
5809 5806 5804 5801 5799 5796 5792 5790 5787 5786 5781 5779 5775 5771 5768 5764 5762 5758 5754 5751 5746 5741 5736 5731 5726 5721 5717 5713 5711 5707 5705 5702 5699 5696 5693 5690 5684 5680 5676 5675 5673 5670 5669 5667 5666
5804 5802 5799 5796 5793 5790 5786 5784 5783 5779 5777 5774 5770 5767 5764 5761 5756 5752 5749 5744 5739 5734 5729 5723 5718 5714 5709 5706 5703 5698 5696 5692 5689 5686 5684 5679 5675 5673 5669 5664 5663 5662 5658 5655 5654
5799 5797 5794 5791 5788 5784 5782 5779 5776 5774 5771 5768 5765 5762 5759 5756 5752 5746 5742 5738 5734 5728 5723 5719 5714 5707 5704 5699 5697 5692 5688 5685 5679 5676 5672 5671 5666 5662 5659 5655 5652 5648 5647 5643 5641
5793 5791 5788 5785 5782 5779 5777 5774 5771 5769 5767 5764 5761 5758 5755 5750 5746 5741 5737 5732 5726 5721 5717 5710 5708 5701 5696 5689 5688 5686 5682 5679 5673 5668 5661 5658 5655 5651 5646 5641 5638 5637 5634 5631 5630
5788 5785 5782 5779 5775 5773 5771 5768 5766 5763 5761 5758 5756 5753 5749 5744 5740 5735 5730 5726 5720 5715 5709 5703 5697 5691 5687 5682 5680 5678 5675 5672 5667 5659 5652 5650 5644 5639 5634 5627 5622 5618 5616 5616 5615
5782 5779 5776 5773 5770 5767 5764 5762 5760 5758 5755 5753 5750 5747 5743 5739 5734 5729 5724 5719 5712 5707 5702 5696 5690 5686 5680 5677 5675 5672 5669 5664 5659 5655 5644 5633 5635 5633 5625 5615 5609 5603 5598 5597 5596
5774 5772 5768 5766 5765 5761 5759 5756 5754 5751 5749 5746 5744 5740 5737 5733 5729 5723 5719 5712 5707 5700 5694 5688 5682 5679 5676 5672 5669 5666 5661 5655 5650 5646 5637 5628 5617 5620 5610 5600 5590 5585 5581 5578 5574
5767 5764 5762 5759 5757 5755 5753 5751 5749 5746 5743 5740 5737 5734 5730 5726 5722 5717 5712 5706 5700 5693 5687 5682 5676 5669 5670 5667 5661 5659 5654 5649 5643 5638 5633 5619 5612 5606 5594 5585 5578 5571 5567 5561 5558
5763 5759 5757 5754 5752 5750 5747 5745 5743 5740 5737 5734 5731 5728 5723 5720 5715 5710 5705 5700 5695 5688 5682 5675 5671 5665 5662 5660 5653 5652 5648 5642 5637 5629 5619 5614 5599 5598 5583 5571 5562 5553 5546 5541 5539
5756 5754 5751 5749 5746 5744 5742 5739 5736 5734 5730 5727 5725 5721 5717 5714 5710 5705 5700 5694 5690 5682 5676 5671 5666 5659 5656 5651 5646 5643 5639 5636 5629 5621 5609 5604 5593 5583 5573 5561 5550 5539 5532 5528 5525
5752 5750 5747 5744 5740 5737 5734 5732 5729 5727 5724 5720 5718 5714 5710 5706 5701 5698 5693 5688 5685 5678 5670 5664 5659 5653 5651 5644 5639 5637 5631 5626 5620 5611 5601 5593 5587 5577 5566 5554 5544 5534 5525 5521 5517
5746 5744 5741 5739 5734 5731 5728 5724 5722 5719 5717 5713 5710 5708 5703 5699 5695 5690 5685 5679 5675 5670 5664 5658 5651 5645 5643 5636 5632 5630 5624 5618 5613 5602 5593 5586 5579 5571 5563 5553 5543 5534 5523 5516 5512